WXM80 ListenWXM80 Stop

You find our weather info also at:

UK Metoffice

WeatherCloud

Weather Underground

Northeastern Weather Network

AWEKAS

Citizen Weather Observer Program (CWOP)

HAMweather, WeatherForYou, PWS Weather


Weather Underground History page Text

Daily Summary for January 03, 2018 Units:  Both    English   Metric
« Previous Day
Next Day »
Daily Weekly Monthly Yearly Custom
  High: Low: Average:
Temperature: 29.9 °F /  -1.2 °C 16.5 °F /  -8.6 °C 22.4 °F /  -5.3 °C
Dew Point: 23.8 °F /  -4.6 °C 6.4 °F /  -14.2 °C 11.7 °F /  -11.3 °C
Humidity: 87 % 48 % 64 %
Wind Speed: 7.8 mph /  12.6 km/h - 1.6 mph /  2.6 km/h
Wind Gust: 15.0 mph /  24.1 km/h - -
Wind:- - SSW
Pressure: 30.36 in /  1028 hPa 29.78 in /  1008.4 hPa -
Precipitation: 0.00 in /  0 mm    
Historical Graphs
 
 
Tabular Data for January 03, 2018
Time Temperature Dew Point Pressure Wind Wind Speed Wind Gust Humidity Rainfall Rate (Hourly)
00:02 19.4 °F /  -7 °C 8.5 °F /  -13.1 °C 30.32 in /  1026.6 hPa WSW 3.1 mph /  5 km/h 6.0 mph /  9.7 km/h 62 % 0.00 in /  0 mm
00:06 19.4 °F /  -7 °C 8.5 °F /  -13.1 °C 30.32 in /  1026.6 hPa WSW 2.3 mph /  3.7 km/h 3.5 mph /  5.6 km/h 62 % 0.00 in /  0 mm
00:11 19.4 °F /  -7 °C 8.5 °F /  -13.1 °C 30.32 in /  1026.6 hPa SW 3.4 mph /  5.5 km/h 6.9 mph /  11.1 km/h 62 % 0.00 in /  0 mm
00:16 19.4 °F /  -7 °C 8.5 °F /  -13.1 °C 30.32 in /  1026.6 hPa WSW 4.2 mph /  6.8 km/h 6.9 mph /  11.1 km/h 62 % 0.00 in /  0 mm
00:21 19.3 °F /  -7.1 °C 8.4 °F /  -13.1 °C 30.32 in /  1026.6 hPa WSW 5.0 mph /  8 km/h 9.2 mph /  14.8 km/h 62 % 0.00 in /  0 mm
00:22 19.3 °F /  -7.1 °C 8.4 °F /  -13.1 °C 30.32 in /  1026.6 hPa WNW 4.1 mph /  6.6 km/h 9.2 mph /  14.8 km/h 62 % 0.00 in /  0 mm
00:27 19.3 °F /  -7.1 °C 8.4 °F /  -13.1 °C 30.32 in /  1026.6 hPa West 4.6 mph /  7.4 km/h 9.2 mph /  14.8 km/h 62 % 0.00 in /  0 mm
00:28 19.3 °F /  -7.1 °C 8.4 °F /  -13.1 °C 30.32 in /  1026.6 hPa WSW 3.4 mph /  5.5 km/h 9.2 mph /  14.8 km/h 62 % 0.00 in /  0 mm
00:31 19.4 °F /  -7 °C 8.5 °F /  -13.1 °C 30.32 in /  1026.6 hPa WSW 3.4 mph /  5.5 km/h 7.0 mph /  11.3 km/h 62 % 0.00 in /  0 mm
00:36 19.4 °F /  -7 °C 8.5 °F /  -13.1 °C 30.32 in /  1026.6 hPa WSW 2.3 mph /  3.7 km/h 5.8 mph /  9.3 km/h 62 % 0.00 in /  0 mm
00:38 19.4 °F /  -7 °C 8.5 °F /  -13.1 °C 30.32 in /  1026.6 hPa SW 1.8 mph /  2.9 km/h 4.6 mph /  7.4 km/h 62 % 0.00 in /  0 mm
00:43 19.5 °F /  -6.9 °C 8.9 °F /  -12.8 °C 30.32 in /  1026.6 hPa WSW 4.5 mph /  7.2 km/h 9.2 mph /  14.8 km/h 63 % 0.00 in /  0 mm
00:47 19.6 °F /  -6.9 °C 9.0 °F /  -12.8 °C 30.31 in /  1026.3 hPa West 7.7 mph /  12.4 km/h 11.5 mph /  18.5 km/h 63 % 0.00 in /  0 mm
00:53 19.7 °F /  -6.8 °C 9.1 °F /  -12.7 °C 30.31 in /  1026.3 hPa SW 7.8 mph /  12.6 km/h 15.0 mph /  24.1 km/h 63 % 0.00 in /  0 mm
00:56 19.8 °F /  -6.8 °C 8.9 °F /  -12.8 °C 30.32 in /  1026.6 hPa SW 6.6 mph /  10.6 km/h 12.7 mph /  20.4 km/h 62 % 0.00 in /  0 mm
00:57 19.9 °F /  -6.7 °C 9.0 °F /  -12.8 °C 30.32 in /  1026.6 hPa WSW 2.8 mph /  4.5 km/h 9.2 mph /  14.8 km/h 62 % 0.00 in /  0 mm
01:02 19.9 °F /  -6.7 °C 9.3 °F /  -12.6 °C 30.32 in /  1026.6 hPa WSW 7.0 mph /  11.3 km/h 10.4 mph /  16.7 km/h 63 % 0.00 in /  0 mm
01:07 19.9 °F /  -6.7 °C 9.3 °F /  -12.6 °C 30.32 in /  1026.6 hPa NW 3.8 mph /  6.1 km/h 7.0 mph /  11.3 km/h 63 % 0.00 in /  0 mm
01:12 20.0 °F /  -6.7 °C 9.4 °F /  -12.6 °C 30.32 in /  1026.6 hPa WSW 1.7 mph /  2.7 km/h 5.0 mph /  8 km/h 63 % 0.00 in /  0 mm
01:16 19.9 °F /  -6.7 °C 9.3 °F /  -12.6 °C 30.32 in /  1026.6 hPa WSW 2.3 mph /  3.7 km/h 3.5 mph /  5.6 km/h 63 % 0.00 in /  0 mm
01:21 19.9 °F /  -6.7 °C 9.3 °F /  -12.6 °C 30.32 in /  1026.6 hPa SW 2.9 mph /  4.7 km/h 9.0 mph /  14.5 km/h 63 % 0.00 in /  0 mm
01:24 19.8 °F /  -6.8 °C 9.2 °F /  -12.7 °C 30.33 in /  1027 hPa SW 4.6 mph /  7.4 km/h 6.0 mph /  9.7 km/h 63 % 0.00 in /  0 mm
01:30 19.7 °F /  -6.8 °C 8.8 °F /  -12.9 °C 30.32 in /  1026.6 hPa West 5.6 mph /  9 km/h 5.8 mph /  9.3 km/h 62 % 0.00 in /  0 mm
01:35 19.7 °F /  -6.8 °C 8.8 °F /  -12.9 °C 30.32 in /  1026.6 hPa WSW 2.6 mph /  4.2 km/h 6.9 mph /  11.1 km/h 62 % 0.00 in /  0 mm
01:37 19.6 °F /  -6.9 °C 8.7 °F /  -12.9 °C 30.32 in /  1026.6 hPa SW 2.7 mph /  4.3 km/h 5.8 mph /  9.3 km/h 62 % 0.00 in /  0 mm
01:39 19.6 °F /  -6.9 °C 8.7 °F /  -12.9 °C 30.32 in /  1026.6 hPa WSW 2.8 mph /  4.5 km/h 5.8 mph /  9.3 km/h 62 % 0.00 in /  0 mm
01:44 19.5 °F /  -6.9 °C 8.6 °F /  -13 °C 30.33 in /  1027 hPa SW 2.0 mph /  3.2 km/h 3.5 mph /  5.6 km/h 62 % 0.00 in /  0 mm
01:45 19.5 °F /  -6.9 °C 8.6 °F /  -13 °C 30.32 in /  1026.6 hPa SSW 2.1 mph /  3.4 km/h 5.0 mph /  8 km/h 62 % 0.00 in /  0 mm
01:50 19.3 °F /  -7.1 °C 8.4 °F /  -13.1 °C 30.32 in /  1026.6 hPa SSW 2.7 mph /  4.3 km/h 4.6 mph /  7.4 km/h 62 % 0.00 in /  0 mm
01:55 19.2 °F /  -7.1 °C 8.3 °F /  -13.2 °C 30.32 in /  1026.6 hPa WSW 4.0 mph /  6.4 km/h 6.9 mph /  11.1 km/h 62 % 0.00 in /  0 mm
01:58 19.1 °F /  -7.2 °C 8.2 °F /  -13.2 °C 30.32 in /  1026.6 hPa West 0.9 mph /  1.4 km/h 4.6 mph /  7.4 km/h 62 % 0.00 in /  0 mm
02:03 18.9 °F /  -7.3 °C 8.0 °F /  -13.3 °C 30.33 in /  1027 hPa South 3.7 mph /  6 km/h 8.1 mph /  13 km/h 62 % 0.00 in /  0 mm
02:10 18.7 °F /  -7.4 °C 7.8 °F /  -13.4 °C 30.33 in /  1027 hPa SW 3.4 mph /  5.5 km/h 5.8 mph /  9.3 km/h 62 % 0.00 in /  0 mm
02:15 18.6 °F /  -7.4 °C 7.7 °F /  -13.5 °C 30.33 in /  1027 hPa WSW 4.1 mph /  6.6 km/h 6.9 mph /  11.1 km/h 62 % 0.00 in /  0 mm
02:16 18.5 °F /  -7.5 °C 7.6 °F /  -13.6 °C 30.33 in /  1027 hPa SW 2.6 mph /  4.2 km/h 4.6 mph /  7.4 km/h 62 % 0.00 in /  0 mm
02:21 18.4 °F /  -7.6 °C 7.5 °F /  -13.6 °C 30.33 in /  1027 hPa SW 2.6 mph /  4.2 km/h 4.6 mph /  7.4 km/h 62 % 0.00 in /  0 mm
02:26 18.3 °F /  -7.6 °C 7.4 °F /  -13.7 °C 30.33 in /  1027 hPa SW 2.9 mph /  4.7 km/h 5.0 mph /  8 km/h 62 % 0.00 in /  0 mm
02:27 18.3 °F /  -7.6 °C 7.4 °F /  -13.7 °C 30.33 in /  1027 hPa SSW 2.7 mph /  4.3 km/h 4.6 mph /  7.4 km/h 62 % 0.00 in /  0 mm
02:32 18.2 °F /  -7.7 °C 7.3 °F /  -13.7 °C 30.33 in /  1027 hPa WSW 4.0 mph /  6.4 km/h 6.0 mph /  9.7 km/h 62 % 0.00 in /  0 mm
02:35 18.1 °F /  -7.7 °C 7.3 °F /  -13.7 °C 30.33 in /  1027 hPa WSW 4.0 mph /  6.4 km/h 8.1 mph /  13 km/h 62 % 0.00 in /  0 mm
02:36 18.1 °F /  -7.7 °C 7.3 °F /  -13.7 °C 30.33 in /  1027 hPa SW 2.5 mph /  4 km/h 5.8 mph /  9.3 km/h 62 % 0.00 in /  0 mm
02:41 18.0 °F /  -7.8 °C 7.2 °F /  -13.8 °C 30.34 in /  1027.3 hPa SW 2.8 mph /  4.5 km/h 6.9 mph /  11.1 km/h 62 % 0.00 in /  0 mm
02:42 17.9 °F /  -7.8 °C 7.1 °F /  -13.8 °C 30.34 in /  1027.3 hPa SSW 1.5 mph /  2.4 km/h 4.6 mph /  7.4 km/h 62 % 0.00 in /  0 mm
02:47 17.9 °F /  -7.8 °C 7.1 °F /  -13.8 °C 30.33 in /  1027 hPa SW 2.5 mph /  4 km/h 8.1 mph /  13 km/h 62 % 0.00 in /  0 mm
02:51 17.8 °F /  -7.9 °C 7.0 °F /  -13.9 °C 30.34 in /  1027.3 hPa SSW 0.7 mph /  1.1 km/h 4.6 mph /  7.4 km/h 62 % 0.00 in /  0 mm
02:52 17.7 °F /  -7.9 °C 6.9 °F /  -13.9 °C 30.34 in /  1027.3 hPa WSW 0.9 mph /  1.4 km/h 4.6 mph /  7.4 km/h 62 % 0.00 in /  0 mm
02:57 17.7 °F /  -7.9 °C 6.9 °F /  -13.9 °C 30.34 in /  1027.3 hPa SW 3.5 mph /  5.6 km/h 6.9 mph /  11.1 km/h 62 % 0.00 in /  0 mm
02:58 17.6 °F /  -8 °C 6.8 °F /  -14 °C 30.34 in /  1027.3 hPa SW 1.1 mph /  1.8 km/h 3.5 mph /  5.6 km/h 62 % 0.00 in /  0 mm
03:03 17.6 °F /  -8 °C 6.8 °F /  -14 °C 30.34 in /  1027.3 hPa SSW 3.2 mph /  5.1 km/h 5.8 mph /  9.3 km/h 62 % 0.00 in /  0 mm
03:07 17.5 °F /  -8.1 °C 6.7 °F /  -14.1 °C 30.34 in /  1027.3 hPa WSW 1.7 mph /  2.7 km/h 3.5 mph /  5.6 km/h 62 % 0.00 in /  0 mm
03:13 17.5 °F /  -8.1 °C 7.0 °F /  -13.9 °C 30.34 in /  1027.3 hPa SW 0.5 mph /  0.8 km/h 2.3 mph /  3.7 km/h 63 % 0.00 in /  0 mm
03:16 17.4 °F /  -8.1 °C 6.9 °F /  -13.9 °C 30.34 in /  1027.3 hPa WSW 1.9 mph /  3.1 km/h 7.0 mph /  11.3 km/h 63 % 0.00 in /  0 mm
03:26 17.3 °F /  -8.2 °C 6.8 °F /  -14 °C 30.34 in /  1027.3 hPa SSW 1.7 mph /  2.7 km/h 4.6 mph /  7.4 km/h 63 % 0.00 in /  0 mm
03:28 17.3 °F /  -8.2 °C 6.8 °F /  -14 °C 30.34 in /  1027.3 hPa SW 2.3 mph /  3.7 km/h 4.6 mph /  7.4 km/h 63 % 0.00 in /  0 mm
03:33 17.3 °F /  -8.2 °C 6.8 °F /  -14 °C 30.33 in /  1027 hPa WSW 3.1 mph /  5 km/h 5.8 mph /  9.3 km/h 63 % 0.00 in /  0 mm
03:38 17.3 °F /  -8.2 °C 6.8 °F /  -14 °C 30.33 in /  1027 hPa West 0.9 mph /  1.4 km/h 7.0 mph /  11.3 km/h 63 % 0.00 in /  0 mm
03:43 17.3 °F /  -8.2 °C 6.8 °F /  -14 °C 30.33 in /  1027 hPa WSW 2.1 mph /  3.4 km/h 4.0 mph /  6.4 km/h 63 % 0.00 in /  0 mm
03:45 17.3 °F /  -8.2 °C 6.8 °F /  -14 °C 30.33 in /  1027 hPa SW 1.2 mph /  1.9 km/h 3.5 mph /  5.6 km/h 63 % 0.00 in /  0 mm
03:50 17.3 °F /  -8.2 °C 7.2 °F /  -13.8 °C 30.34 in /  1027.3 hPa SW 3.7 mph /  6 km/h 6.0 mph /  9.7 km/h 64 % 0.00 in /  0 mm
03:55 17.3 °F /  -8.2 °C 7.2 °F /  -13.8 °C 30.34 in /  1027.3 hPa SSW 1.0 mph /  1.6 km/h 5.8 mph /  9.3 km/h 64 % 0.00 in /  0 mm
03:58 17.2 °F /  -8.2 °C 7.1 °F /  -13.8 °C 30.33 in /  1027 hPa WSW 2.5 mph /  4 km/h 4.6 mph /  7.4 km/h 64 % 0.00 in /  0 mm
04:04 17.2 °F /  -8.2 °C 6.8 °F /  -14 °C 30.32 in /  1026.6 hPa WSW 2.6 mph /  4.2 km/h 5.0 mph /  8 km/h 63 % 0.00 in /  0 mm
04:09 17.2 °F /  -8.2 °C 7.1 °F /  -13.8 °C 30.32 in /  1026.6 hPa West 2.6 mph /  4.2 km/h 4.6 mph /  7.4 km/h 64 % 0.00 in /  0 mm
04:14 17.2 °F /  -8.2 °C 7.1 °F /  -13.8 °C 30.32 in /  1026.6 hPa WSW 3.4 mph /  5.5 km/h 5.8 mph /  9.3 km/h 64 % 0.00 in /  0 mm
04:17 17.2 °F /  -8.2 °C 7.1 °F /  -13.8 °C 30.33 in /  1027 hPa WSW 3.2 mph /  5.1 km/h 7.0 mph /  11.3 km/h 64 % 0.00 in /  0 mm
04:18 17.2 °F /  -8.2 °C 7.1 °F /  -13.8 °C 30.32 in /  1026.6 hPa WSW 1.0 mph /  1.6 km/h 6.9 mph /  11.1 km/h 64 % 0.00 in /  0 mm
04:23 17.2 °F /  -8.2 °C 7.4 °F /  -13.7 °C 30.32 in /  1026.6 hPa SW 1.6 mph /  2.6 km/h 4.0 mph /  6.4 km/h 65 % 0.00 in /  0 mm
04:24 17.2 °F /  -8.2 °C 7.4 °F /  -13.7 °C 30.33 in /  1027 hPa WSW 2.9 mph /  4.7 km/h 5.8 mph /  9.3 km/h 65 % 0.00 in /  0 mm
04:29 17.2 °F /  -8.2 °C 7.4 °F /  -13.7 °C 30.32 in /  1026.6 hPa West 1.8 mph /  2.9 km/h 3.5 mph /  5.6 km/h 65 % 0.00 in /  0 mm
04:34 17.1 °F /  -8.3 °C 7.3 °F /  -13.7 °C 30.33 in /  1027 hPa WSW 1.3 mph /  2.1 km/h 3.5 mph /  5.6 km/h 65 % 0.00 in /  0 mm
04:39 17.1 °F /  -8.3 °C 7.3 °F /  -13.7 °C 30.32 in /  1026.6 hPa West 1.4 mph /  2.3 km/h 4.6 mph /  7.4 km/h 65 % 0.00 in /  0 mm
04:42 17.1 °F /  -8.3 °C 7.3 °F /  -13.7 °C 30.32 in /  1026.6 hPa WSW 2.9 mph /  4.7 km/h 4.6 mph /  7.4 km/h 65 % 0.00 in /  0 mm
04:47 17.1 °F /  -8.3 °C 7.3 °F /  -13.7 °C 30.33 in /  1027 hPa WSW 2.9 mph /  4.7 km/h 5.8 mph /  9.3 km/h 65 % 0.00 in /  0 mm
04:50 17.0 °F /  -8.3 °C 7.3 °F /  -13.7 °C 30.32 in /  1026.6 hPa SW 0.8 mph /  1.3 km/h 2.3 mph /  3.7 km/h 65 % 0.00 in /  0 mm
04:55 17.0 °F /  -8.3 °C 7.3 °F /  -13.7 °C 30.32 in /  1026.6 hPa West 1.2 mph /  1.9 km/h 2.3 mph /  3.7 km/h 65 % 0.00 in /  0 mm
04:59 17.0 °F /  -8.3 °C 7.3 °F /  -13.7 °C 30.32 in /  1026.6 hPa SSW 2.9 mph /  4.7 km/h 4.0 mph /  6.4 km/h 65 % 0.00 in /  0 mm
05:00 17.0 °F /  -8.3 °C 7.3 °F /  -13.7 °C 30.32 in /  1026.6 hPa SW 2.4 mph /  3.9 km/h 4.6 mph /  7.4 km/h 65 % 0.00 in /  0 mm
05:05 16.9 °F /  -8.4 °C 7.5 °F /  -13.6 °C 30.32 in /  1026.6 hPa WSW 1.6 mph /  2.6 km/h 2.3 mph /  3.7 km/h 66 % 0.00 in /  0 mm
05:10 17.0 °F /  -8.3 °C 7.9 °F /  -13.4 °C 30.31 in /  1026.3 hPa NNW 6.8 mph /  10.9 km/h 10.4 mph /  16.7 km/h 67 % 0.00 in /  0 mm
05:11 17.0 °F /  -8.3 °C 7.9 °F /  -13.4 °C 30.32 in /  1026.6 hPa West 4.2 mph /  6.8 km/h 9.2 mph /  14.8 km/h 67 % 0.00 in /  0 mm
05:17 17.2 °F /  -8.2 °C 8.1 °F /  -13.3 °C 30.32 in /  1026.6 hPa WSW 4.8 mph /  7.7 km/h 6.0 mph /  9.7 km/h 67 % 0.00 in /  0 mm
05:21 17.4 °F /  -8.1 °C 8.3 °F /  -13.2 °C 30.31 in /  1026.3 hPa WNW 3.1 mph /  5 km/h 8.1 mph /  13 km/h 67 % 0.00 in /  0 mm
05:26 17.7 °F /  -7.9 °C 8.3 °F /  -13.2 °C 30.30 in /  1026 hPa WNW 2.0 mph /  3.2 km/h 5.8 mph /  9.3 km/h 66 % 0.00 in /  0 mm
05:27 17.7 °F /  -7.9 °C 8.3 °F /  -13.2 °C 30.31 in /  1026.3 hPa WNW 3.9 mph /  6.3 km/h 6.9 mph /  11.1 km/h 66 % 0.00 in /  0 mm
05:32 17.9 °F /  -7.8 °C 8.5 °F /  -13.1 °C 30.32 in /  1026.6 hPa WSW 1.0 mph /  1.6 km/h 3.5 mph /  5.6 km/h 66 % 0.00 in /  0 mm
05:35 17.9 °F /  -7.8 °C 8.1 °F /  -13.3 °C 30.33 in /  1027 hPa WNW 5.0 mph /  8 km/h 10.4 mph /  16.7 km/h 65 % 0.00 in /  0 mm
05:40 18.1 °F /  -7.7 °C 8.3 °F /  -13.2 °C 30.31 in /  1026.3 hPa WNW 5.4 mph /  8.7 km/h 12.0 mph /  19.3 km/h 65 % 0.00 in /  0 mm
05:43 18.2 °F /  -7.7 °C 8.4 °F /  -13.1 °C 30.31 in /  1026.3 hPa West 4.2 mph /  6.8 km/h 10.4 mph /  16.7 km/h 65 % 0.00 in /  0 mm
05:46 18.2 °F /  -7.7 °C 8.4 °F /  -13.1 °C 30.32 in /  1026.6 hPa WSW 5.2 mph /  8.4 km/h 7.0 mph /  11.3 km/h 65 % 0.00 in /  0 mm
05:49 18.3 °F /  -7.6 °C 8.5 °F /  -13.1 °C 30.32 in /  1026.6 hPa Calm   2.3 mph /  3.7 km/h 65 % 0.00 in /  0 mm
05:54 18.3 °F /  -7.6 °C 8.1 °F /  -13.3 °C 30.33 in /  1027 hPa WSW 2.7 mph /  4.3 km/h 5.0 mph /  8 km/h 64 % 0.00 in /  0 mm
05:57 18.3 °F /  -7.6 °C 8.1 °F /  -13.3 °C 30.33 in /  1027 hPa Calm   2.3 mph /  3.7 km/h 64 % 0.00 in /  0 mm
06:02 18.2 °F /  -7.7 °C 8.1 °F /  -13.3 °C 30.33 in /  1027 hPa WSW 2.4 mph /  3.9 km/h 5.8 mph /  9.3 km/h 64 % 0.00 in /  0 mm
06:03 18.2 °F /  -7.7 °C 8.1 °F /  -13.3 °C 30.33 in /  1027 hPa WSW 1.7 mph /  2.7 km/h 3.5 mph /  5.6 km/h 64 % 0.00 in /  0 mm
06:08 18.2 °F /  -7.7 °C 8.1 °F /  -13.3 °C 30.32 in /  1026.6 hPa West 2.0 mph /  3.2 km/h 2.3 mph /  3.7 km/h 64 % 0.00 in /  0 mm
06:11 18.2 °F /  -7.7 °C 8.1 °F /  -13.3 °C 30.33 in /  1027 hPa West 4.5 mph /  7.2 km/h 5.0 mph /  8 km/h 64 % 0.00 in /  0 mm
06:13 18.1 °F /  -7.7 °C 7.6 °F /  -13.6 °C 30.33 in /  1027 hPa West 3.4 mph /  5.5 km/h 6.9 mph /  11.1 km/h 63 % 0.00 in /  0 mm
06:17 18.1 °F /  -7.7 °C 7.6 °F /  -13.6 °C 30.33 in /  1027 hPa West 1.6 mph /  2.6 km/h 4.6 mph /  7.4 km/h 63 % 0.00 in /  0 mm
06:22 18.1 °F /  -7.7 °C 7.6 °F /  -13.6 °C 30.32 in /  1026.6 hPa WNW 3.2 mph /  5.1 km/h 4.6 mph /  7.4 km/h 63 % 0.00 in /  0 mm
06:24 18.1 °F /  -7.7 °C 8.0 °F /  -13.3 °C 30.32 in /  1026.6 hPa West 3.0 mph /  4.8 km/h 5.8 mph /  9.3 km/h 64 % 0.00 in /  0 mm
06:29 18.0 °F /  -7.8 °C 7.9 °F /  -13.4 °C 30.32 in /  1026.6 hPa West 1.0 mph /  1.6 km/h 3.5 mph /  5.6 km/h 64 % 0.00 in /  0 mm
06:31 18.0 °F /  -7.8 °C 7.9 °F /  -13.4 °C 30.32 in /  1026.6 hPa WSW 4.2 mph /  6.8 km/h 6.0 mph /  9.7 km/h 64 % 0.00 in /  0 mm
06:35 18.0 °F /  -7.8 °C 7.9 °F /  -13.4 °C 30.32 in /  1026.6 hPa WSW 3.1 mph /  5 km/h 4.6 mph /  7.4 km/h 64 % 0.00 in /  0 mm
06:40 17.9 °F /  -7.8 °C 7.8 °F /  -13.4 °C 30.33 in /  1027 hPa WSW 3.8 mph /  6.1 km/h 6.0 mph /  9.7 km/h 64 % 0.00 in /  0 mm
06:44 17.9 °F /  -7.8 °C 7.8 °F /  -13.4 °C 30.33 in /  1027 hPa WNW 2.6 mph /  4.2 km/h 4.0 mph /  6.4 km/h 64 % 0.00 in /  0 mm
06:50 17.9 °F /  -7.8 °C 8.1 °F /  -13.3 °C 30.32 in /  1026.6 hPa WNW 3.1 mph /  5 km/h 5.8 mph /  9.3 km/h 65 % 0.00 in /  0 mm
06:54 17.9 °F /  -7.8 °C 8.1 °F /  -13.3 °C 30.33 in /  1027 hPa WNW 4.1 mph /  6.6 km/h 5.0 mph /  8 km/h 65 % 0.00 in /  0 mm
06:59 17.8 °F /  -7.9 °C 8.0 °F /  -13.3 °C 30.33 in /  1027 hPa West 1.2 mph /  1.9 km/h 2.3 mph /  3.7 km/h 65 % 0.00 in /  0 mm
07:01 17.8 °F /  -7.9 °C 8.0 °F /  -13.3 °C 30.33 in /  1027 hPa West 1.2 mph /  1.9 km/h 3.5 mph /  5.6 km/h 65 % 0.00 in /  0 mm
07:06 17.7 °F /  -7.9 °C 7.6 °F /  -13.6 °C 30.33 in /  1027 hPa WSW 2.9 mph /  4.7 km/h 5.8 mph /  9.3 km/h 64 % 0.00 in /  0 mm
07:09 17.7 °F /  -7.9 °C 7.6 °F /  -13.6 °C 30.33 in /  1027 hPa West 2.7 mph /  4.3 km/h 3.5 mph /  5.6 km/h 64 % 0.00 in /  0 mm
07:11 17.7 °F /  -7.9 °C 7.6 °F /  -13.6 °C 30.33 in /  1027 hPa West 1.2 mph /  1.9 km/h 3.5 mph /  5.6 km/h 64 % 0.00 in /  0 mm
07:14 17.7 °F /  -7.9 °C 7.6 °F /  -13.6 °C 30.33 in /  1027 hPa WSW 1.0 mph /  1.6 km/h 2.3 mph /  3.7 km/h 64 % 0.00 in /  0 mm
07:19 17.6 °F /  -8 °C 7.5 °F /  -13.6 °C 30.33 in /  1027 hPa SSW 1.9 mph /  3.1 km/h 3.5 mph /  5.6 km/h 64 % 0.00 in /  0 mm
07:21 17.6 °F /  -8 °C 7.8 °F /  -13.4 °C 30.33 in /  1027 hPa SW 1.8 mph /  2.9 km/h 3.5 mph /  5.6 km/h 65 % 0.00 in /  0 mm
07:24 17.5 °F /  -8.1 °C 7.7 °F /  -13.5 °C 30.33 in /  1027 hPa SW 0.8 mph /  1.3 km/h 3.0 mph /  4.8 km/h 65 % 0.00 in /  0 mm
07:28 17.5 °F /  -8.1 °C 7.7 °F /  -13.5 °C 30.34 in /  1027.3 hPa Calm   3.5 mph /  5.6 km/h 65 % 0.00 in /  0 mm
07:33 17.3 °F /  -8.2 °C 7.5 °F /  -13.6 °C 30.34 in /  1027.3 hPa Calm     65 % 0.00 in /  0 mm
07:34 17.3 °F /  -8.2 °C 7.5 °F /  -13.6 °C 30.34 in /  1027.3 hPa SW 0.1 mph /  0.2 km/h 1.2 mph /  1.9 km/h 65 % 0.00 in /  0 mm
07:39 17.2 °F /  -8.2 °C 7.4 °F /  -13.7 °C 30.34 in /  1027.3 hPa Calm   1.2 mph /  1.9 km/h 65 % 0.00 in /  0 mm
07:42 17.1 °F /  -8.3 °C 7.3 °F /  -13.7 °C 30.34 in /  1027.3 hPa Calm     65 % 0.00 in /  0 mm
07:47 17.0 °F /  -8.3 °C 7.3 °F /  -13.7 °C 30.34 in /  1027.3 hPa SW 1.9 mph /  3.1 km/h 3.5 mph /  5.6 km/h 65 % 0.00 in /  0 mm
07:52 16.8 °F /  -8.4 °C 7.1 °F /  -13.8 °C 30.34 in /  1027.3 hPa SW 0.5 mph /  0.8 km/h 2.0 mph /  3.2 km/h 65 % 0.00 in /  0 mm
07:53 16.9 °F /  -8.4 °C 7.2 °F /  -13.8 °C 30.34 in /  1027.3 hPa SW 1.2 mph /  1.9 km/h 2.0 mph /  3.2 km/h 65 % 0.00 in /  0 mm
07:55 16.8 °F /  -8.4 °C 7.1 °F /  -13.8 °C 30.34 in /  1027.3 hPa SW 0.7 mph /  1.1 km/h 2.3 mph /  3.7 km/h 65 % 0.00 in /  0 mm
08:00 16.7 °F /  -8.5 °C 7.0 °F /  -13.9 °C 30.34 in /  1027.3 hPa SW 1.0 mph /  1.6 km/h 3.0 mph /  4.8 km/h 65 % 0.00 in /  0 mm
08:01 16.7 °F /  -8.5 °C 7.0 °F /  -13.9 °C 30.34 in /  1027.3 hPa SW 1.7 mph /  2.7 km/h 3.5 mph /  5.6 km/h 65 % 0.00 in /  0 mm
08:07 16.6 °F /  -8.6 °C 6.9 °F /  -13.9 °C 30.35 in /  1027.7 hPa Calm     65 % 0.00 in /  0 mm
08:08 16.6 °F /  -8.6 °C 6.9 °F /  -13.9 °C 30.35 in /  1027.7 hPa SW 1.5 mph /  2.4 km/h 3.0 mph /  4.8 km/h 65 % 0.00 in /  0 mm
08:13 16.5 °F /  -8.6 °C 6.8 °F /  -14 °C 30.35 in /  1027.7 hPa SW 1.2 mph /  1.9 km/h 3.0 mph /  4.8 km/h 65 % 0.00 in /  0 mm
08:16 16.5 °F /  -8.6 °C 6.8 °F /  -14 °C 30.35 in /  1027.7 hPa SW 2.0 mph /  3.2 km/h 4.0 mph /  6.4 km/h 65 % 0.00 in /  0 mm
08:21 16.5 °F /  -8.6 °C 6.8 °F /  -14 °C 30.35 in /  1027.7 hPa SW 0.6 mph /  1 km/h 3.5 mph /  5.6 km/h 65 % 0.00 in /  0 mm
08:24 16.6 °F /  -8.6 °C 6.9 °F /  -13.9 °C 30.35 in /  1027.7 hPa SSW 2.4 mph /  3.9 km/h 3.5 mph /  5.6 km/h 65 % 0.00 in /  0 mm
08:29 16.6 °F /  -8.6 °C 6.9 °F /  -13.9 °C 30.35 in /  1027.7 hPa SSW 1.7 mph /  2.7 km/h 5.0 mph /  8 km/h 65 % 0.00 in /  0 mm
08:34 16.7 °F /  -8.5 °C 6.6 °F /  -14.1 °C 30.35 in /  1027.7 hPa West 3.0 mph /  4.8 km/h 3.5 mph /  5.6 km/h 64 % 0.00 in /  0 mm
08:37 16.7 °F /  -8.5 °C 6.6 °F /  -14.1 °C 30.35 in /  1027.7 hPa WSW 1.8 mph /  2.9 km/h 3.0 mph /  4.8 km/h 64 % 0.00 in /  0 mm
08:42 16.8 °F /  -8.4 °C 6.4 °F /  -14.2 °C 30.35 in /  1027.7 hPa WSW 0.6 mph /  1 km/h 3.0 mph /  4.8 km/h 63 % 0.00 in /  0 mm
08:43 16.9 °F /  -8.4 °C 6.5 °F /  -14.2 °C 30.34 in /  1027.3 hPa SW 3.1 mph /  5 km/h 3.1 mph /  5 km/h 63 % 0.00 in /  0 mm
08:48 17.1 °F /  -8.3 °C 6.7 °F /  -14.1 °C 30.34 in /  1027.3 hPa West 1.1 mph /  1.8 km/h 3.5 mph /  5.6 km/h 63 % 0.00 in /  0 mm
08:49 17.1 °F /  -8.3 °C 6.7 °F /  -14.1 °C 30.34 in /  1027.3 hPa SW 3.0 mph /  4.8 km/h 3.5 mph /  5.6 km/h 63 % 0.00 in /  0 mm
08:54 17.3 °F /  -8.2 °C 6.8 °F /  -14 °C 30.35 in /  1027.7 hPa West 5.4 mph /  8.7 km/h 8.1 mph /  13 km/h 63 % 0.00 in /  0 mm
08:56 17.5 °F /  -8.1 °C 7.0 °F /  -13.9 °C 30.35 in /  1027.7 hPa SSW 3.0 mph /  4.8 km/h 6.0 mph /  9.7 km/h 63 % 0.00 in /  0 mm
08:58 17.6 °F /  -8 °C 7.1 °F /  -13.8 °C 30.35 in /  1027.7 hPa South 2.3 mph /  3.7 km/h 5.0 mph /  8 km/h 63 % 0.00 in /  0 mm
09:04 17.9 °F /  -7.8 °C 7.1 °F /  -13.8 °C 30.35 in /  1027.7 hPa WNW 0.3 mph /  0.5 km/h 3.5 mph /  5.6 km/h 62 % 0.00 in /  0 mm
09:05 18.0 °F /  -7.8 °C 7.2 °F /  -13.8 °C 30.35 in /  1027.7 hPa West 3.4 mph /  5.5 km/h 5.0 mph /  8 km/h 62 % 0.00 in /  0 mm
09:11 18.2 °F /  -7.7 °C 7.0 °F /  -13.9 °C 30.35 in /  1027.7 hPa WSW 2.0 mph /  3.2 km/h 8.0 mph /  12.9 km/h 61 % 0.00 in /  0 mm
09:16 18.5 °F /  -7.5 °C 7.2 °F /  -13.8 °C 30.34 in /  1027.3 hPa WSW 1.0 mph /  1.6 km/h 7.0 mph /  11.3 km/h 61 % 0.00 in /  0 mm
09:20 18.7 °F /  -7.4 °C 7.5 °F /  -13.6 °C 30.35 in /  1027.7 hPa SW 5.0 mph /  8 km/h 6.0 mph /  9.7 km/h 61 % 0.00 in /  0 mm
09:25 19.0 °F /  -7.2 °C 7.7 °F /  -13.5 °C 30.35 in /  1027.7 hPa WSW 1.9 mph /  3.1 km/h 4.6 mph /  7.4 km/h 61 % 0.00 in /  0 mm
09:29 19.2 °F /  -7.1 °C 7.9 °F /  -13.4 °C 30.35 in /  1027.7 hPa SW 2.4 mph /  3.9 km/h 3.5 mph /  5.6 km/h 61 % 0.00 in /  0 mm
09:34 19.5 °F /  -6.9 °C 8.2 °F /  -13.2 °C 30.35 in /  1027.7 hPa West 0.8 mph /  1.3 km/h 3.5 mph /  5.6 km/h 61 % 0.00 in /  0 mm
09:36 19.7 °F /  -6.8 °C 8.4 °F /  -13.1 °C 30.36 in /  1028 hPa SSW 1.5 mph /  2.4 km/h 4.0 mph /  6.4 km/h 61 % 0.00 in /  0 mm
09:39 19.8 °F /  -6.8 °C 8.5 °F /  -13.1 °C 30.35 in /  1027.7 hPa SW 2.1 mph /  3.4 km/h 4.6 mph /  7.4 km/h 61 % 0.00 in /  0 mm
09:44 20.3 °F /  -6.5 °C 8.6 °F /  -13 °C 30.35 in /  1027.7 hPa West 0.1 mph /  0.2 km/h 2.3 mph /  3.7 km/h 60 % 0.00 in /  0 mm
09:49 20.8 °F /  -6.2 °C 8.7 °F /  -12.9 °C 30.35 in /  1027.7 hPa West 0.2 mph /  0.3 km/h 2.3 mph /  3.7 km/h 59 % 0.00 in /  0 mm
09:51 21.0 °F /  -6.1 °C 8.9 °F /  -12.8 °C 30.34 in /  1027.3 hPa West 1.3 mph /  2.1 km/h 6.0 mph /  9.7 km/h 59 % 0.00 in /  0 mm
09:54 21.3 °F /  -5.9 °C 8.8 °F /  -12.9 °C 30.34 in /  1027.3 hPa SW 2.7 mph /  4.3 km/h 3.5 mph /  5.6 km/h 58 % 0.00 in /  0 mm
09:59 21.9 °F /  -5.6 °C 9.0 °F /  -12.8 °C 30.35 in /  1027.7 hPa WSW 2.9 mph /  4.7 km/h 6.0 mph /  9.7 km/h 57 % 0.00 in /  0 mm
10:04 22.3 °F /  -5.4 °C 9.0 °F /  -12.8 °C 30.34 in /  1027.3 hPa WSW 0.1 mph /  0.2 km/h 2.3 mph /  3.7 km/h 56 % 0.00 in /  0 mm
10:05 22.3 °F /  -5.4 °C 9.0 °F /  -12.8 °C 30.34 in /  1027.3 hPa Calm   2.3 mph /  3.7 km/h 56 % 0.00 in /  0 mm
10:10 22.7 °F /  -5.2 °C 9.3 °F /  -12.6 °C 30.34 in /  1027.3 hPa West 2.1 mph /  3.4 km/h 3.5 mph /  5.6 km/h 56 % 0.00 in /  0 mm
10:14 23.0 °F /  -5 °C 9.2 °F /  -12.7 °C 30.34 in /  1027.3 hPa SW 3.7 mph /  6 km/h 6.0 mph /  9.7 km/h 55 % 0.00 in /  0 mm
10:19 23.3 °F /  -4.8 °C 9.1 °F /  -12.7 °C 30.34 in /  1027.3 hPa South 1.2 mph /  1.9 km/h 3.5 mph /  5.6 km/h 54 % 0.00 in /  0 mm
10:21 23.4 °F /  -4.8 °C 9.2 °F /  -12.7 °C 30.34 in /  1027.3 hPa West 3.8 mph /  6.1 km/h 4.6 mph /  7.4 km/h 54 % 0.00 in /  0 mm
10:26 23.7 °F /  -4.6 °C 9.0 °F /  -12.8 °C 30.34 in /  1027.3 hPa SW 2.8 mph /  4.5 km/h 5.8 mph /  9.3 km/h 53 % 0.00 in /  0 mm
10:31 23.9 °F /  -4.5 °C 8.8 °F /  -12.9 °C 30.34 in /  1027.3 hPa SW 3.8 mph /  6.1 km/h 5.8 mph /  9.3 km/h 52 % 0.00 in /  0 mm
10:35 24.0 °F /  -4.4 °C 9.3 °F /  -12.6 °C 30.34 in /  1027.3 hPa SSW 3.8 mph /  6.1 km/h 5.8 mph /  9.3 km/h 53 % 0.00 in /  0 mm
10:40 24.3 °F /  -4.3 °C 9.2 °F /  -12.7 °C 30.34 in /  1027.3 hPa WSW 3.0 mph /  4.8 km/h 4.0 mph /  6.4 km/h 52 % 0.00 in /  0 mm
10:41 24.3 °F /  -4.3 °C 8.7 °F /  -12.9 °C 30.33 in /  1027 hPa SW 3.2 mph /  5.1 km/h 4.6 mph /  7.4 km/h 51 % 0.00 in /  0 mm
10:42 24.3 °F /  -4.3 °C 8.7 °F /  -12.9 °C 30.33 in /  1027 hPa WSW 1.7 mph /  2.7 km/h 3.5 mph /  5.6 km/h 51 % 0.00 in /  0 mm
10:47 24.5 °F /  -4.2 °C 8.9 °F /  -12.8 °C 30.33 in /  1027 hPa West 1.8 mph /  2.9 km/h 6.9 mph /  11.1 km/h 51 % 0.00 in /  0 mm
10:48 24.5 °F /  -4.2 °C 8.9 °F /  -12.8 °C 30.33 in /  1027 hPa West 1.6 mph /  2.6 km/h 4.0 mph /  6.4 km/h 51 % 0.00 in /  0 mm
10:53 24.7 °F /  -4.1 °C 8.7 °F /  -12.9 °C 30.33 in /  1027 hPa WNW 2.4 mph /  3.9 km/h 5.0 mph /  8 km/h 50 % 0.00 in /  0 mm
10:58 24.7 °F /  -4.1 °C 8.7 °F /  -12.9 °C 30.33 in /  1027 hPa WNW 3.5 mph /  5.6 km/h 5.0 mph /  8 km/h 50 % 0.00 in /  0 mm
11:02 24.7 °F /  -4.1 °C 8.7 °F /  -12.9 °C 30.32 in /  1026.6 hPa WNW 0.3 mph /  0.5 km/h 2.3 mph /  3.7 km/h 50 % 0.00 in /  0 mm
11:05 24.8 °F /  -4 °C 8.8 °F /  -12.9 °C 30.32 in /  1026.6 hPa WSW 1.9 mph /  3.1 km/h 5.0 mph /  8 km/h 50 % 0.00 in /  0 mm
11:10 24.7 °F /  -4.1 °C 8.7 °F /  -12.9 °C 30.32 in /  1026.6 hPa West 2.0 mph /  3.2 km/h 3.5 mph /  5.6 km/h 50 % 0.00 in /  0 mm
11:11 24.7 °F /  -4.1 °C 8.2 °F /  -13.2 °C 30.32 in /  1026.6 hPa WNW 1.8 mph /  2.9 km/h 3.5 mph /  5.6 km/h 49 % 0.00 in /  0 mm
11:16 24.8 °F /  -4 °C 8.8 °F /  -12.9 °C 30.31 in /  1026.3 hPa SW 2.4 mph /  3.9 km/h 4.6 mph /  7.4 km/h 50 % 0.00 in /  0 mm
11:21 24.8 °F /  -4 °C 9.2 °F /  -12.7 °C 30.32 in /  1026.6 hPa WNW 1.2 mph /  1.9 km/h 3.5 mph /  5.6 km/h 51 % 0.00 in /  0 mm
11:22 24.8 °F /  -4 °C 9.2 °F /  -12.7 °C 30.32 in /  1026.6 hPa WNW 1.9 mph /  3.1 km/h 4.0 mph /  6.4 km/h 51 % 0.00 in /  0 mm
11:25 24.8 °F /  -4 °C 8.8 °F /  -12.9 °C 30.31 in /  1026.3 hPa WNW 0.8 mph /  1.3 km/h 3.5 mph /  5.6 km/h 50 % 0.00 in /  0 mm
11:30 24.9 °F /  -3.9 °C 9.3 °F /  -12.6 °C 30.31 in /  1026.3 hPa NW 3.2 mph /  5.1 km/h 4.6 mph /  7.4 km/h 51 % 0.00 in /  0 mm
11:31 24.9 °F /  -3.9 °C 8.9 °F /  -12.8 °C 30.31 in /  1026.3 hPa WNW 3.0 mph /  4.8 km/h 5.0 mph /  8 km/h 50 % 0.00 in /  0 mm
11:39 24.9 °F /  -3.9 °C 8.9 °F /  -12.8 °C 30.30 in /  1026 hPa WNW 1.9 mph /  3.1 km/h 2.0 mph /  3.2 km/h 50 % 0.00 in /  0 mm
11:42 24.9 °F /  -3.9 °C 8.9 °F /  -12.8 °C 30.30 in /  1026 hPa WNW 0.6 mph /  1 km/h 2.3 mph /  3.7 km/h 50 % 0.00 in /  0 mm
11:44 24.9 °F /  -3.9 °C 8.9 °F /  -12.8 °C 30.30 in /  1026 hPa WNW 0.7 mph /  1.1 km/h 1.2 mph /  1.9 km/h 50 % 0.00 in /  0 mm
11:46 24.9 °F /  -3.9 °C 8.9 °F /  -12.8 °C 30.30 in /  1026 hPa WNW 1.0 mph /  1.6 km/h 5.0 mph /  8 km/h 50 % 0.00 in /  0 mm
11:51 25.0 °F /  -3.9 °C 8.9 °F /  -12.8 °C 30.30 in /  1026 hPa WNW 3.0 mph /  4.8 km/h 5.0 mph /  8 km/h 50 % 0.00 in /  0 mm
11:56 25.0 °F /  -3.9 °C 9.4 °F /  -12.6 °C 30.30 in /  1026 hPa WNW 2.0 mph /  3.2 km/h 5.0 mph /  8 km/h 51 % 0.00 in /  0 mm
11:58 25.0 °F /  -3.9 °C 9.0 °F /  -12.8 °C 30.30 in /  1026 hPa WNW 3.4 mph /  5.5 km/h 4.6 mph /  7.4 km/h 50 % 0.00 in /  0 mm
12:03 25.1 °F /  -3.8 °C 8.6 °F /  -13 °C 30.30 in /  1026 hPa WNW 3.2 mph /  5.1 km/h 4.0 mph /  6.4 km/h 49 % 0.00 in /  0 mm
12:05 25.1 °F /  -3.8 °C 8.6 °F /  -13 °C 30.30 in /  1026 hPa WNW 3.1 mph /  5 km/h 4.6 mph /  7.4 km/h 49 % 0.00 in /  0 mm
12:10 25.2 °F /  -3.8 °C 8.7 °F /  -12.9 °C 30.30 in /  1026 hPa WNW 0.7 mph /  1.1 km/h 3.5 mph /  5.6 km/h 49 % 0.00 in /  0 mm
12:11 25.2 °F /  -3.8 °C 8.7 °F /  -12.9 °C 30.30 in /  1026 hPa WNW 1.0 mph /  1.6 km/h 5.0 mph /  8 km/h 49 % 0.00 in /  0 mm
12:16 25.4 °F /  -3.7 °C 9.3 °F /  -12.6 °C 30.30 in /  1026 hPa NW 1.0 mph /  1.6 km/h 5.0 mph /  8 km/h 50 % 0.00 in /  0 mm
12:21 25.7 °F /  -3.5 °C 9.6 °F /  -12.4 °C 30.29 in /  1025.6 hPa WSW 2.4 mph /  3.9 km/h 3.5 mph /  5.6 km/h 50 % 0.00 in /  0 mm
12:23 25.8 °F /  -3.4 °C 9.2 °F /  -12.7 °C 30.29 in /  1025.6 hPa West 0.5 mph /  0.8 km/h 2.3 mph /  3.7 km/h 49 % 0.00 in /  0 mm
12:28 26.1 °F /  -3.3 °C 10.0 °F /  -12.2 °C 30.29 in /  1025.6 hPa NNW 0.6 mph /  1 km/h 3.5 mph /  5.6 km/h 50 % 0.00 in /  0 mm
12:29 26.2 °F /  -3.2 °C 10.1 °F /  -12.2 °C 30.28 in /  1025.3 hPa WNW 2.4 mph /  3.9 km/h 3.5 mph /  5.6 km/h 50 % 0.00 in /  0 mm
12:33 26.3 °F /  -3.2 °C 9.7 °F /  -12.4 °C 30.28 in /  1025.3 hPa WNW 0.7 mph /  1.1 km/h 3.5 mph /  5.6 km/h 49 % 0.00 in /  0 mm
12:38 26.7 °F /  -2.9 °C 10.1 °F /  -12.2 °C 30.27 in /  1024.9 hPa NNW 2.5 mph /  4 km/h 3.5 mph /  5.6 km/h 49 % 0.00 in /  0 mm
12:43 26.9 °F /  -2.8 °C 9.8 °F /  -12.3 °C 30.27 in /  1024.9 hPa NW 1.5 mph /  2.4 km/h 3.5 mph /  5.6 km/h 48 % 0.00 in /  0 mm
12:45 27.0 °F /  -2.8 °C 9.9 °F /  -12.3 °C 30.27 in /  1024.9 hPa NW 1.4 mph /  2.3 km/h 3.5 mph /  5.6 km/h 48 % 0.00 in /  0 mm
12:50 27.2 °F /  -2.7 °C 10.1 °F /  -12.2 °C 30.27 in /  1024.9 hPa WNW 2.9 mph /  4.7 km/h 5.8 mph /  9.3 km/h 48 % 0.00 in /  0 mm
12:52 27.3 °F /  -2.6 °C 10.2 °F /  -12.1 °C 30.26 in /  1024.6 hPa WNW 2.5 mph /  4 km/h 5.8 mph /  9.3 km/h 48 % 0.00 in /  0 mm
12:54 27.4 °F /  -2.6 °C 11.2 °F /  -11.6 °C 30.26 in /  1024.6 hPa WNW 1.9 mph /  3.1 km/h 4.0 mph /  6.4 km/h 50 % 0.00 in /  0 mm
13:00 27.7 °F /  -2.4 °C 12.3 °F /  -10.9 °C 30.26 in /  1024.6 hPa NNW 1.5 mph /  2.4 km/h 3.5 mph /  5.6 km/h 52 % 0.00 in /  0 mm
13:01 27.8 °F /  -2.3 °C 12.4 °F /  -10.9 °C 30.26 in /  1024.6 hPa NW 2.9 mph /  4.7 km/h 4.6 mph /  7.4 km/h 52 % 0.00 in /  0 mm
13:07 27.9 °F /  -2.3 °C 13.0 °F /  -10.6 °C 30.26 in /  1024.6 hPa NNW 2.0 mph /  3.2 km/h 3.5 mph /  5.6 km/h 53 % 0.00 in /  0 mm
13:12 28.1 °F /  -2.2 °C 12.7 °F /  -10.7 °C 30.26 in /  1024.6 hPa NNW 0.8 mph /  1.3 km/h 3.5 mph /  5.6 km/h 52 % 0.00 in /  0 mm
13:17 28.1 °F /  -2.2 °C 12.3 °F /  -10.9 °C 30.26 in /  1024.6 hPa WNW 2.1 mph /  3.4 km/h 3.5 mph /  5.6 km/h 51 % 0.00 in /  0 mm
13:19 28.2 °F /  -2.1 °C 12.4 °F /  -10.9 °C 30.26 in /  1024.6 hPa WNW 2.3 mph /  3.7 km/h 4.6 mph /  7.4 km/h 51 % 0.00 in /  0 mm
13:24 28.3 °F /  -2.1 °C 12.5 °F /  -10.8 °C 30.26 in /  1024.6 hPa WNW 0.9 mph /  1.4 km/h 4.6 mph /  7.4 km/h 51 % 0.00 in /  0 mm
13:28 28.6 °F /  -1.9 °C 13.2 °F /  -10.4 °C 30.25 in /  1024.3 hPa WNW 0.7 mph /  1.1 km/h 2.3 mph /  3.7 km/h 52 % 0.00 in /  0 mm
13:33 28.9 °F /  -1.7 °C 13.9 °F /  -10.1 °C 30.25 in /  1024.3 hPa WNW 1.4 mph /  2.3 km/h 2.3 mph /  3.7 km/h 53 % 0.00 in /  0 mm
13:34 29.0 °F /  -1.7 °C 13.6 °F /  -10.2 °C 30.25 in /  1024.3 hPa NW 1.7 mph /  2.7 km/h 3.5 mph /  5.6 km/h 52 % 0.00 in /  0 mm
13:39 29.3 °F /  -1.5 °C 15.1 °F /  -9.4 °C 30.25 in /  1024.3 hPa NE 1.6 mph /  2.6 km/h 3.0 mph /  4.8 km/h 55 % 0.00 in /  0 mm
13:44 29.5 °F /  -1.4 °C 14.9 °F /  -9.5 °C 30.25 in /  1024.3 hPa NNE 1.0 mph /  1.6 km/h 3.5 mph /  5.6 km/h 54 % 0.00 in /  0 mm
13:45 29.6 °F /  -1.3 °C 15.0 °F /  -9.4 °C 30.25 in /  1024.3 hPa NE 1.2 mph /  1.9 km/h 3.5 mph /  5.6 km/h 54 % 0.00 in /  0 mm
13:50 29.5 °F /  -1.4 °C 14.0 °F /  -10 °C 30.24 in /  1023.9 hPa NE 1.0 mph /  1.6 km/h 3.5 mph /  5.6 km/h 52 % 0.00 in /  0 mm
13:51 29.4 °F /  -1.4 °C 13.9 °F /  -10.1 °C 30.24 in /  1023.9 hPa NE 0.4 mph /  0.6 km/h 2.3 mph /  3.7 km/h 52 % 0.00 in /  0 mm
13:56 29.7 °F /  -1.3 °C 15.1 °F /  -9.4 °C 30.24 in /  1023.9 hPa Calm   3.0 mph /  4.8 km/h 54 % 0.00 in /  0 mm
13:57 29.8 °F /  -1.2 °C 14.7 °F /  -9.6 °C 30.24 in /  1023.9 hPa NE 1.3 mph /  2.1 km/h 3.0 mph /  4.8 km/h 53 % 0.00 in /  0 mm
13:58 29.8 °F /  -1.2 °C 14.7 °F /  -9.6 °C 30.24 in /  1023.9 hPa NE 2.0 mph /  3.2 km/h 3.5 mph /  5.6 km/h 53 % 0.00 in /  0 mm
14:03 29.9 °F /  -1.2 °C 14.8 °F /  -9.6 °C 30.24 in /  1023.9 hPa NE 0.9 mph /  1.4 km/h 2.3 mph /  3.7 km/h 53 % 0.00 in /  0 mm
14:04 29.8 °F /  -1.2 °C 14.3 °F /  -9.8 °C 30.24 in /  1023.9 hPa ENE 3.4 mph /  5.5 km/h 6.9 mph /  11.1 km/h 52 % 0.00 in /  0 mm
14:09 29.6 °F /  -1.3 °C 14.5 °F /  -9.7 °C 30.23 in /  1023.6 hPa NNE 1.5 mph /  2.4 km/h 3.5 mph /  5.6 km/h 53 % 0.00 in /  0 mm
14:11 29.5 °F /  -1.4 °C 14.0 °F /  -10 °C 30.23 in /  1023.6 hPa NNE 0.9 mph /  1.4 km/h 2.3 mph /  3.7 km/h 52 % 0.00 in /  0 mm
14:17 29.4 °F /  -1.4 °C 14.8 °F /  -9.6 °C 30.22 in /  1023.2 hPa NNE 2.5 mph /  4 km/h 5.0 mph /  8 km/h 54 % 0.00 in /  0 mm
14:22 29.1 °F /  -1.6 °C 14.5 °F /  -9.7 °C 30.22 in /  1023.2 hPa NE 1.7 mph /  2.7 km/h 3.5 mph /  5.6 km/h 54 % 0.00 in /  0 mm
14:26 29.0 °F /  -1.7 °C 14.4 °F /  -9.8 °C 30.22 in /  1023.2 hPa NE 1.4 mph /  2.3 km/h 2.3 mph /  3.7 km/h 54 % 0.00 in /  0 mm
14:30 28.9 °F /  -1.7 °C 14.7 °F /  -9.6 °C 30.21 in /  1022.9 hPa NE 1.8 mph /  2.9 km/h 3.5 mph /  5.6 km/h 55 % 0.00 in /  0 mm
14:32 28.8 °F /  -1.8 °C 14.6 °F /  -9.7 °C 30.22 in /  1023.2 hPa NE 1.0 mph /  1.6 km/h 2.3 mph /  3.7 km/h 55 % 0.00 in /  0 mm
14:37 28.7 °F /  -1.8 °C 14.6 °F /  -9.7 °C 30.21 in /  1022.9 hPa NE 1.7 mph /  2.7 km/h 3.5 mph /  5.6 km/h 55 % 0.00 in /  0 mm
14:43 28.4 °F /  -2 °C 14.3 °F /  -9.8 °C 30.21 in /  1022.9 hPa NE 2.2 mph /  3.5 km/h 3.5 mph /  5.6 km/h 55 % 0.00 in /  0 mm
14:47 28.2 °F /  -2.1 °C 14.5 °F /  -9.7 °C 30.21 in /  1022.9 hPa ENE 2.6 mph /  4.2 km/h 4.6 mph /  7.4 km/h 56 % 0.00 in /  0 mm
14:53 28.0 °F /  -2.2 °C 14.3 °F /  -9.8 °C 30.20 in /  1022.6 hPa NE 1.0 mph /  1.6 km/h 3.5 mph /  5.6 km/h 56 % 0.00 in /  0 mm
14:54 27.9 °F /  -2.3 °C 14.6 °F /  -9.7 °C 30.20 in /  1022.6 hPa NE 0.9 mph /  1.4 km/h 3.5 mph /  5.6 km/h 57 % 0.00 in /  0 mm
14:58 27.9 °F /  -2.3 °C 15.0 °F /  -9.4 °C 30.20 in /  1022.6 hPa NE 2.3 mph /  3.7 km/h 3.5 mph /  5.6 km/h 58 % 0.00 in /  0 mm
15:03 27.8 °F /  -2.3 °C 14.9 °F /  -9.5 °C 30.21 in /  1022.9 hPa NE 0.3 mph /  0.5 km/h 2.3 mph /  3.7 km/h 58 % 0.00 in /  0 mm
15:08 27.7 °F /  -2.4 °C 15.2 °F /  -9.3 °C 30.20 in /  1022.6 hPa NE 1.2 mph /  1.9 km/h 3.5 mph /  5.6 km/h 59 % 0.00 in /  0 mm
15:13 27.7 °F /  -2.4 °C 15.2 °F /  -9.3 °C 30.20 in /  1022.6 hPa NE 1.3 mph /  2.1 km/h 3.5 mph /  5.6 km/h 59 % 0.00 in /  0 mm
15:18 27.6 °F /  -2.4 °C 15.5 °F /  -9.2 °C 30.20 in /  1022.6 hPa NE 0.7 mph /  1.1 km/h 2.3 mph /  3.7 km/h 60 % 0.00 in /  0 mm
15:27 27.6 °F /  -2.4 °C 15.1 °F /  -9.4 °C 30.20 in /  1022.6 hPa NE 0.2 mph /  0.3 km/h 2.3 mph /  3.7 km/h 59 % 0.00 in /  0 mm
15:32 27.6 °F /  -2.4 °C 15.5 °F /  -9.2 °C 30.20 in /  1022.6 hPa Calm   1.2 mph /  1.9 km/h 60 % 0.00 in /  0 mm
15:33 27.6 °F /  -2.4 °C 15.5 °F /  -9.2 °C 30.20 in /  1022.6 hPa Calm     60 % 0.00 in /  0 mm
15:38 27.6 °F /  -2.4 °C 15.5 °F /  -9.2 °C 30.19 in /  1022.2 hPa NE 1.1 mph /  1.8 km/h 2.3 mph /  3.7 km/h 60 % 0.00 in /  0 mm
15:44 27.7 °F /  -2.4 °C 15.6 °F /  -9.1 °C 30.19 in /  1022.2 hPa NE 0.2 mph /  0.3 km/h 2.3 mph /  3.7 km/h 60 % 0.00 in /  0 mm
15:45 27.7 °F /  -2.4 °C 15.6 °F /  -9.1 °C 30.18 in /  1021.9 hPa NE 0.5 mph /  0.8 km/h 2.3 mph /  3.7 km/h 60 % 0.00 in /  0 mm
15:50 27.7 °F /  -2.4 °C 15.6 °F /  -9.1 °C 30.19 in /  1022.2 hPa NE 0.5 mph /  0.8 km/h 1.2 mph /  1.9 km/h 60 % 0.00 in /  0 mm
15:52 27.7 °F /  -2.4 °C 15.6 °F /  -9.1 °C 30.19 in /  1022.2 hPa NE 1.4 mph /  2.3 km/h 3.5 mph /  5.6 km/h 60 % 0.00 in /  0 mm
15:57 27.6 °F /  -2.4 °C 15.5 °F /  -9.2 °C 30.19 in /  1022.2 hPa Calm     60 % 0.00 in /  0 mm
16:01 27.6 °F /  -2.4 °C 15.5 °F /  -9.2 °C 30.18 in /  1021.9 hPa Calm     60 % 0.00 in /  0 mm
16:06 27.7 °F /  -2.4 °C 16.0 °F /  -8.9 °C 30.18 in /  1021.9 hPa Calm     61 % 0.00 in /  0 mm
16:11 27.6 °F /  -2.4 °C 15.9 °F /  -8.9 °C 30.18 in /  1021.9 hPa Calm   1.2 mph /  1.9 km/h 61 % 0.00 in /  0 mm
16:16 27.6 °F /  -2.4 °C 15.9 °F /  -8.9 °C 30.19 in /  1022.2 hPa Calm     61 % 0.00 in /  0 mm
16:21 27.5 °F /  -2.5 °C 15.8 °F /  -9 °C 30.19 in /  1022.2 hPa Calm     61 % 0.00 in /  0 mm
16:26 27.4 °F /  -2.6 °C 15.7 °F /  -9.1 °C 30.19 in /  1022.2 hPa NE 0.9 mph /  1.4 km/h 2.3 mph /  3.7 km/h 61 % 0.00 in /  0 mm
16:27 27.4 °F /  -2.6 °C 15.7 °F /  -9.1 °C 30.19 in /  1022.2 hPa NE 0.5 mph /  0.8 km/h 2.3 mph /  3.7 km/h 61 % 0.00 in /  0 mm
16:32 27.3 °F /  -2.6 °C 15.2 °F /  -9.3 °C 30.19 in /  1022.2 hPa Calm     60 % 0.00 in /  0 mm
16:33 27.2 °F /  -2.7 °C 15.1 °F /  -9.4 °C 30.20 in /  1022.6 hPa Calm   1.2 mph /  1.9 km/h 60 % 0.00 in /  0 mm
16:38 27.1 °F /  -2.7 °C 14.7 °F /  -9.6 °C 30.20 in /  1022.6 hPa Calm     59 % 0.00 in /  0 mm
16:43 27.1 °F /  -2.7 °C 14.7 °F /  -9.6 °C 30.21 in /  1022.9 hPa Calm     59 % 0.00 in /  0 mm
16:49 27.0 °F /  -2.8 °C 14.9 °F /  -9.5 °C 30.21 in /  1022.9 hPa NE 0.2 mph /  0.3 km/h 1.0 mph /  1.6 km/h 60 % 0.00 in /  0 mm
16:51 26.9 °F /  -2.8 °C 14.9 °F /  -9.5 °C 30.22 in /  1023.2 hPa NE 0.9 mph /  1.4 km/h 2.3 mph /  3.7 km/h 60 % 0.00 in /  0 mm
16:56 26.7 °F /  -2.9 °C 14.7 °F /  -9.6 °C 30.22 in /  1023.2 hPa Calm     60 % 0.00 in /  0 mm
17:01 26.6 °F /  -3 °C 14.9 °F /  -9.5 °C 30.22 in /  1023.2 hPa Calm   1.2 mph /  1.9 km/h 61 % 0.00 in /  0 mm
17:02 26.5 °F /  -3.1 °C 14.5 °F /  -9.7 °C 30.22 in /  1023.2 hPa Calm     60 % 0.00 in /  0 mm
17:07 26.4 °F /  -3.1 °C 14.4 °F /  -9.8 °C 30.21 in /  1022.9 hPa Calm     60 % 0.00 in /  0 mm
17:11 26.2 °F /  -3.2 °C 14.2 °F /  -9.9 °C 30.21 in /  1022.9 hPa Calm     60 % 0.00 in /  0 mm
17:13 26.1 °F /  -3.3 °C 14.1 °F /  -9.9 °C 30.21 in /  1022.9 hPa Calm   1.2 mph /  1.9 km/h 60 % 0.00 in /  0 mm
17:16 26.0 °F /  -3.3 °C 14.0 °F /  -10 °C 30.21 in /  1022.9 hPa Calm     60 % 0.00 in /  0 mm
17:21 25.8 °F /  -3.4 °C 13.8 °F /  -10.1 °C 30.20 in /  1022.6 hPa Calm     60 % 0.00 in /  0 mm
17:29 25.6 °F /  -3.6 °C 14.0 °F /  -10 °C 30.20 in /  1022.6 hPa Calm     61 % 0.00 in /  0 mm
17:31 25.6 °F /  -3.6 °C 14.0 °F /  -10 °C 30.20 in /  1022.6 hPa Calm     61 % 0.00 in /  0 mm
17:36 25.4 °F /  -3.7 °C 13.8 °F /  -10.1 °C 30.20 in /  1022.6 hPa NE 0.1 mph /  0.2 km/h 1.2 mph /  1.9 km/h 61 % 0.00 in /  0 mm
17:41 25.3 °F /  -3.7 °C 13.7 °F /  -10.2 °C 30.20 in /  1022.6 hPa Calm     61 % 0.00 in /  0 mm
17:43 25.2 °F /  -3.8 °C 13.6 °F /  -10.2 °C 30.20 in /  1022.6 hPa Calm     61 % 0.00 in /  0 mm
17:48 25.2 °F /  -3.8 °C 13.6 °F /  -10.2 °C 30.19 in /  1022.2 hPa Calm     61 % 0.00 in /  0 mm
17:51 25.1 °F /  -3.8 °C 13.5 °F /  -10.3 °C 30.19 in /  1022.2 hPa Calm     61 % 0.00 in /  0 mm
17:54 25.1 °F /  -3.8 °C 13.9 °F /  -10.1 °C 30.19 in /  1022.2 hPa Calm     62 % 0.00 in /  0 mm
17:57 25.0 °F /  -3.9 °C 13.8 °F /  -10.1 °C 30.19 in /  1022.2 hPa Calm     62 % 0.00 in /  0 mm
18:02 25.0 °F /  -3.9 °C 13.8 °F /  -10.1 °C 30.19 in /  1022.2 hPa Calm     62 % 0.00 in /  0 mm
18:05 24.9 °F /  -3.9 °C 13.7 °F /  -10.2 °C 30.19 in /  1022.2 hPa Calm     62 % 0.00 in /  0 mm
18:10 24.9 °F /  -3.9 °C 14.4 °F /  -9.8 °C 30.19 in /  1022.2 hPa Calm     64 % 0.00 in /  0 mm
18:11 24.9 °F /  -3.9 °C 14.4 °F /  -9.8 °C 30.19 in /  1022.2 hPa Calm     64 % 0.00 in /  0 mm
18:16 24.8 °F /  -4 °C 14.7 °F /  -9.6 °C 30.19 in /  1022.2 hPa Calm     65 % 0.00 in /  0 mm
18:20 24.7 °F /  -4.1 °C 14.6 °F /  -9.7 °C 30.18 in /  1021.9 hPa Calm     65 % 0.00 in /  0 mm
18:21 24.7 °F /  -4.1 °C 14.6 °F /  -9.7 °C 30.18 in /  1021.9 hPa Calm     65 % 0.00 in /  0 mm
18:26 24.7 °F /  -4.1 °C 14.6 °F /  -9.7 °C 30.18 in /  1021.9 hPa Calm   1.0 mph /  1.6 km/h 65 % 0.00 in /  0 mm
18:31 24.5 °F /  -4.2 °C 14.8 °F /  -9.6 °C 30.19 in /  1022.2 hPa Calm     66 % 0.00 in /  0 mm
18:36 24.5 °F /  -4.2 °C 14.8 °F /  -9.6 °C 30.20 in /  1022.6 hPa ENE 0.2 mph /  0.3 km/h 2.0 mph /  3.2 km/h 66 % 0.00 in /  0 mm
18:41 24.4 °F /  -4.2 °C 15.0 °F /  -9.4 °C 30.19 in /  1022.2 hPa East 0.3 mph /  0.5 km/h 1.2 mph /  1.9 km/h 67 % 0.00 in /  0 mm
18:42 24.3 °F /  -4.3 °C 14.9 °F /  -9.5 °C 30.19 in /  1022.2 hPa Calm     67 % 0.00 in /  0 mm
18:54 24.2 °F /  -4.3 °C 15.2 °F /  -9.3 °C 30.17 in /  1021.6 hPa Calm     68 % 0.00 in /  0 mm
18:59 24.2 °F /  -4.3 °C 15.2 °F /  -9.3 °C 30.17 in /  1021.6 hPa Calm   1.2 mph /  1.9 km/h 68 % 0.00 in /  0 mm
19:02 24.2 °F /  -4.3 °C 15.5 °F /  -9.2 °C 30.18 in /  1021.9 hPa Calm     69 % 0.00 in /  0 mm
19:06 24.2 °F /  -4.3 °C 15.5 °F /  -9.2 °C 30.17 in /  1021.6 hPa Calm     69 % 0.00 in /  0 mm
19:11 24.2 °F /  -4.3 °C 15.5 °F /  -9.2 °C 30.16 in /  1021.2 hPa Calm   1.2 mph /  1.9 km/h 69 % 0.00 in /  0 mm
19:14 24.2 °F /  -4.3 °C 15.8 °F /  -9 °C 30.16 in /  1021.2 hPa Calm     70 % 0.00 in /  0 mm
19:16 24.2 °F /  -4.3 °C 15.8 °F /  -9 °C 30.16 in /  1021.2 hPa Calm     70 % 0.00 in /  0 mm
19:21 24.3 °F /  -4.3 °C 15.9 °F /  -8.9 °C 30.16 in /  1021.2 hPa Calm     70 % 0.00 in /  0 mm
19:23 24.3 °F /  -4.3 °C 15.9 °F /  -8.9 °C 30.16 in /  1021.2 hPa Calm     70 % 0.00 in /  0 mm
19:27 24.3 °F /  -4.3 °C 15.9 °F /  -8.9 °C 30.15 in /  1020.9 hPa Calm     70 % 0.00 in /  0 mm
19:30 24.3 °F /  -4.3 °C 16.2 °F /  -8.8 °C 30.15 in /  1020.9 hPa Calm     71 % 0.00 in /  0 mm
19:34 24.3 °F /  -4.3 °C 15.9 °F /  -8.9 °C 30.15 in /  1020.9 hPa Calm     70 % 0.00 in /  0 mm
19:39 24.2 °F /  -4.3 °C 15.8 °F /  -9 °C 30.15 in /  1020.9 hPa Calm     70 % 0.00 in /  0 mm
19:41 24.2 °F /  -4.3 °C 15.8 °F /  -9 °C 30.15 in /  1020.9 hPa Calm     70 % 0.00 in /  0 mm
19:45 24.1 °F /  -4.4 °C 15.7 °F /  -9.1 °C 30.15 in /  1020.9 hPa Calm     70 % 0.00 in /  0 mm
19:47 24.1 °F /  -4.4 °C 15.7 °F /  -9.1 °C 30.14 in /  1020.5 hPa Calm     70 % 0.00 in /  0 mm
19:50 24.1 °F /  -4.4 °C 16.1 °F /  -8.8 °C 30.15 in /  1020.9 hPa Calm     71 % 0.00 in /  0 mm
19:55 24.0 °F /  -4.4 °C 16.0 °F /  -8.9 °C 30.14 in /  1020.5 hPa Calm     71 % 0.00 in /  0 mm
19:57 24.0 °F /  -4.4 °C 16.0 °F /  -8.9 °C 30.15 in /  1020.9 hPa Calm     71 % 0.00 in /  0 mm
20:02 23.9 °F /  -4.5 °C 15.9 °F /  -8.9 °C 30.15 in /  1020.9 hPa Calm     71 % 0.00 in /  0 mm
20:04 23.9 °F /  -4.5 °C 15.9 °F /  -8.9 °C 30.15 in /  1020.9 hPa Calm     71 % 0.00 in /  0 mm
20:09 23.8 °F /  -4.6 °C 15.4 °F /  -9.2 °C 30.15 in /  1020.9 hPa Calm     70 % 0.00 in /  0 mm
20:12 23.7 °F /  -4.6 °C 15.3 °F /  -9.3 °C 30.15 in /  1020.9 hPa Calm     70 % 0.00 in /  0 mm
20:17 23.6 °F /  -4.7 °C 15.6 °F /  -9.1 °C 30.14 in /  1020.5 hPa Calm     71 % 0.00 in /  0 mm
20:22 23.5 °F /  -4.7 °C 15.5 °F /  -9.2 °C 30.14 in /  1020.5 hPa Calm     71 % 0.00 in /  0 mm
20:27 23.4 °F /  -4.8 °C 15.4 °F /  -9.2 °C 30.15 in /  1020.9 hPa Calm     71 % 0.00 in /  0 mm
20:32 23.3 °F /  -4.8 °C 15.6 °F /  -9.1 °C 30.14 in /  1020.5 hPa Calm     72 % 0.00 in /  0 mm
20:34 23.2 °F /  -4.9 °C 15.5 °F /  -9.2 °C 30.14 in /  1020.5 hPa Calm     72 % 0.00 in /  0 mm
20:39 23.1 °F /  -4.9 °C 15.7 °F /  -9.1 °C 30.14 in /  1020.5 hPa Calm     73 % 0.00 in /  0 mm
20:44 23.1 °F /  -4.9 °C 15.7 °F /  -9.1 °C 30.14 in /  1020.5 hPa Calm     73 % 0.00 in /  0 mm
20:45 23.0 °F /  -5 °C 15.6 °F /  -9.1 °C 30.14 in /  1020.5 hPa Calm     73 % 0.00 in /  0 mm
20:50 22.9 °F /  -5.1 °C 15.8 °F /  -9 °C 30.14 in /  1020.5 hPa Calm     74 % 0.00 in /  0 mm
20:51 22.9 °F /  -5.1 °C 15.8 °F /  -9 °C 30.14 in /  1020.5 hPa Calm     74 % 0.00 in /  0 mm
20:52 22.9 °F /  -5.1 °C 15.8 °F /  -9 °C 30.14 in /  1020.5 hPa Calm     74 % 0.00 in /  0 mm
21:00 22.8 °F /  -5.1 °C 16.1 °F /  -8.8 °C 30.14 in /  1020.5 hPa Calm     75 % 0.00 in /  0 mm
21:05 22.8 °F /  -5.1 °C 16.1 °F /  -8.8 °C 30.14 in /  1020.5 hPa Calm     75 % 0.00 in /  0 mm
21:07 22.8 °F /  -5.1 °C 16.1 °F /  -8.8 °C 30.14 in /  1020.5 hPa Calm     75 % 0.00 in /  0 mm
21:08 22.8 °F /  -5.1 °C 16.1 °F /  -8.8 °C 30.14 in /  1020.5 hPa Calm     75 % 0.00 in /  0 mm
21:13 22.8 °F /  -5.1 °C 16.1 °F /  -8.8 °C 30.14 in /  1020.5 hPa Calm     75 % 0.00 in /  0 mm
21:18 22.8 °F /  -5.1 °C 16.1 °F /  -8.8 °C 30.13 in /  1020.2 hPa Calm     75 % 0.00 in /  0 mm
21:21 22.9 °F /  -5.1 °C 16.2 °F /  -8.8 °C 30.13 in /  1020.2 hPa Calm     75 % 0.00 in /  0 mm
21:26 22.9 °F /  -5.1 °C 16.2 °F /  -8.8 °C 30.13 in /  1020.2 hPa Calm     75 % 0.00 in /  0 mm
21:31 22.9 °F /  -5.1 °C 16.2 °F /  -8.8 °C 30.13 in /  1020.2 hPa Calm     75 % 0.00 in /  0 mm
21:36 22.9 °F /  -5.1 °C 16.2 °F /  -8.8 °C 30.12 in /  1019.9 hPa Calm     75 % 0.00 in /  0 mm
21:39 22.8 °F /  -5.1 °C 16.1 °F /  -8.8 °C 30.12 in /  1019.9 hPa Calm     75 % 0.00 in /  0 mm
21:41 22.8 °F /  -5.1 °C 16.1 °F /  -8.8 °C 30.12 in /  1019.9 hPa Calm     75 % 0.00 in /  0 mm
21:46 22.8 °F /  -5.1 °C 16.1 °F /  -8.8 °C 30.11 in /  1019.5 hPa Calm     75 % 0.00 in /  0 mm
21:49 22.8 °F /  -5.1 °C 16.1 °F /  -8.8 °C 30.11 in /  1019.5 hPa Calm     75 % 0.00 in /  0 mm
21:53 22.7 °F /  -5.2 °C 16.0 °F /  -8.9 °C 30.11 in /  1019.5 hPa Calm     75 % 0.00 in /  0 mm
21:58 22.7 °F /  -5.2 °C 16.3 °F /  -8.7 °C 30.11 in /  1019.5 hPa Calm     76 % 0.00 in /  0 mm
22:03 22.7 °F /  -5.2 °C 16.3 °F /  -8.7 °C 30.10 in /  1019.2 hPa Calm     76 % 0.00 in /  0 mm
22:04 22.6 °F /  -5.2 °C 16.2 °F /  -8.8 °C 30.10 in /  1019.2 hPa Calm     76 % 0.00 in /  0 mm
22:09 22.6 °F /  -5.2 °C 16.2 °F /  -8.8 °C 30.10 in /  1019.2 hPa Calm     76 % 0.00 in /  0 mm
22:12 22.5 °F /  -5.3 °C 16.1 °F /  -8.8 °C 30.09 in /  1018.8 hPa Calm     76 % 0.00 in /  0 mm
22:17 22.5 °F /  -5.3 °C 16.1 °F /  -8.8 °C 30.09 in /  1018.8 hPa Calm     76 % 0.00 in /  0 mm
22:22 22.4 °F /  -5.3 °C 16.0 °F /  -8.9 °C 30.09 in /  1018.8 hPa Calm     76 % 0.00 in /  0 mm
22:24 22.4 °F /  -5.3 °C 16.0 °F /  -8.9 °C 30.08 in /  1018.5 hPa Calm     76 % 0.00 in /  0 mm
22:29 22.4 °F /  -5.3 °C 16.0 °F /  -8.9 °C 30.07 in /  1018.2 hPa Calm     76 % 0.00 in /  0 mm
22:34 22.4 °F /  -5.3 °C 16.3 °F /  -8.7 °C 30.07 in /  1018.2 hPa Calm     77 % 0.00 in /  0 mm
22:38 22.4 °F /  -5.3 °C 16.3 °F /  -8.7 °C 30.07 in /  1018.2 hPa East 0.2 mph /  0.3 km/h 1.0 mph /  1.6 km/h 77 % 0.00 in /  0 mm
22:43 22.4 °F /  -5.3 °C 16.6 °F /  -8.6 °C 30.06 in /  1017.8 hPa Calm     78 % 0.00 in /  0 mm
22:48 22.4 °F /  -5.3 °C 16.6 °F /  -8.6 °C 30.05 in /  1017.5 hPa Calm     78 % 0.00 in /  0 mm
22:51 22.5 °F /  -5.3 °C 16.7 °F /  -8.5 °C 30.05 in /  1017.5 hPa Calm     78 % 0.00 in /  0 mm
22:56 22.5 °F /  -5.3 °C 17.0 °F /  -8.3 °C 30.05 in /  1017.5 hPa Calm     79 % 0.00 in /  0 mm
22:58 22.5 °F /  -5.3 °C 17.0 °F /  -8.3 °C 30.05 in /  1017.5 hPa Calm     79 % 0.00 in /  0 mm
23:01 22.6 °F /  -5.2 °C 17.1 °F /  -8.3 °C 30.05 in /  1017.5 hPa East 0.3 mph /  0.5 km/h 2.0 mph /  3.2 km/h 79 % 0.00 in /  0 mm
23:06 22.8 °F /  -5.1 °C 17.6 °F /  -8 °C 30.04 in /  1017.2 hPa East 0.2 mph /  0.3 km/h 1.2 mph /  1.9 km/h 80 % 0.00 in /  0 mm
23:09 22.9 °F /  -5.1 °C 17.9 °F /  -7.8 °C 30.04 in /  1017.2 hPa Calm     81 % 0.00 in /  0 mm
23:10 23.0 °F /  -5 °C 18.0 °F /  -7.8 °C 30.04 in /  1017.2 hPa East 0.1 mph /  0.2 km/h 1.0 mph /  1.6 km/h 81 % 0.00 in /  0 mm
23:14 23.1 °F /  -4.9 °C 18.1 °F /  -7.7 °C 29.79 in /  1008.7 hPa ENE 0.4 mph /  0.6 km/h 3.0 mph /  4.8 km/h 81 % 0.00 in /  0 mm
23:15 23.2 °F /  -4.9 °C 18.2 °F /  -7.7 °C 29.80 in /  1009 hPa NE 1.7 mph /  2.7 km/h 3.5 mph /  5.6 km/h 81 % 0.00 in /  0 mm
23:16 23.2 °F /  -4.9 °C 18.5 °F /  -7.5 °C 29.79 in /  1008.7 hPa NE 1.2 mph /  1.9 km/h 3.5 mph /  5.6 km/h 82 % 0.00 in /  0 mm
23:17 23.4 °F /  -4.8 °C 19.0 °F /  -7.2 °C 30.04 in /  1017.2 hPa NNE 4.3 mph /  6.9 km/h 6.9 mph /  11.1 km/h 83 % 0.00 in /  0 mm
23:20 23.7 °F /  -4.6 °C 19.6 °F /  -6.9 °C 30.03 in /  1016.8 hPa NNE 5.3 mph /  8.5 km/h 6.9 mph /  11.1 km/h 84 % 0.00 in /  0 mm
23:22 24.0 °F /  -4.4 °C 20.1 °F /  -6.6 °C 30.04 in /  1017.2 hPa NE 3.8 mph /  6.1 km/h 6.9 mph /  11.1 km/h 85 % 0.00 in /  0 mm
23:23 24.2 °F /  -4.3 °C 20.6 °F /  -6.3 °C 30.03 in /  1016.8 hPa NNE 2.7 mph /  4.3 km/h 5.8 mph /  9.3 km/h 86 % 0.00 in /  0 mm
23:24 24.3 °F /  -4.3 °C 20.7 °F /  -6.3 °C 30.03 in /  1016.8 hPa NNE 4.4 mph /  7.1 km/h 5.0 mph /  8 km/h 86 % 0.00 in /  0 mm
23:28 24.8 °F /  -4 °C 21.2 °F /  -6 °C 30.03 in /  1016.8 hPa NNE 4.0 mph /  6.4 km/h 8.0 mph /  12.9 km/h 86 % 0.00 in /  0 mm
23:32 25.4 °F /  -3.7 °C 22.1 °F /  -5.5 °C 30.03 in /  1016.8 hPa NE 4.5 mph /  7.2 km/h 8.1 mph /  13 km/h 87 % 0.00 in /  0 mm
23:37 26.1 °F /  -3.3 °C 22.8 °F /  -5.1 °C 30.02 in /  1016.5 hPa NNE 4.4 mph /  7.1 km/h 9.0 mph /  14.5 km/h 87 % 0.00 in /  0 mm
23:38 26.1 °F /  -3.3 °C 22.8 °F /  -5.1 °C 29.78 in /  1008.4 hPa NNE 5.6 mph /  9 km/h 9.2 mph /  14.8 km/h 87 % 0.00 in /  0 mm
23:41 26.4 °F /  -3.1 °C 23.1 °F /  -4.9 °C 30.02 in /  1016.5 hPa NNE 5.3 mph /  8.5 km/h 9.0 mph /  14.5 km/h 87 % 0.00 in /  0 mm
23:42 26.6 °F /  -3 °C 23.3 °F /  -4.8 °C 29.78 in /  1008.4 hPa NNE 2.4 mph /  3.9 km/h 10.4 mph /  16.7 km/h 87 % 0.00 in /  0 mm
23:44 26.8 °F /  -2.9 °C 23.2 °F /  -4.9 °C 30.02 in /  1016.5 hPa NNE 4.3 mph /  6.9 km/h 9.0 mph /  14.5 km/h 86 % 0.00 in /  0 mm
23:47 27.1 °F /  -2.7 °C 23.5 °F /  -4.7 °C 30.02 in /  1016.5 hPa NNE 4.4 mph /  7.1 km/h 5.8 mph /  9.3 km/h 86 % 0.00 in /  0 mm
23:52 27.7 °F /  -2.4 °C 23.8 °F /  -4.6 °C 30.02 in /  1016.5 hPa ENE 2.1 mph /  3.4 km/h 4.6 mph /  7.4 km/h 85 % 0.00 in /  0 mm
23:53 27.7 °F /  -2.4 °C 23.5 °F /  -4.7 °C 30.02 in /  1016.5 hPa ENE 1.1 mph /  1.8 km/h 4.6 mph /  7.4 km/h 84 % 0.00 in /  0 mm
23:55 27.9 °F /  -2.3 °C 23.7 °F /  -4.6 °C 30.02 in /  1016.5 hPa ENE 4.5 mph /  7.2 km/h 8.1 mph /  13 km/h 84 % 0.00 in /  0 mm
23:56 28.0 °F /  -2.2 °C 23.8 °F /  -4.6 °C 30.02 in /  1016.5 hPa ENE 5.0 mph /  8 km/h 8.0 mph /  12.9 km/h 84 % 0.00 in /  0 mm
Crab Meadow Weather
Compliments of Weather Underground - 3.5 mb

Script developed by  Jim McMurry - jmcmurry@mwt.net Adapted for the template by  Wim van der Kuil - Leuven-Template.eu

Heat Index: The heat index combines air temperature and dew point in an attempt to determine the human-perceived equivalent temperature - how hot it feels. The human body normally cools itself by sweating, which evaporates and carries heat away from the body. However, when the relative humidity is high the evaporation rate is reduced, so heat is removed from the body at a lower rate causing it to retain more heat than it would in dry air.